Weather Roundup
Issued by NWS Chicago, IL

Home | Current Version | Previous Version | Graphics & Text | Print | Product List | Glossary On
Versions: 1 2 3 4 5 6 7 8 9 10 11 12 13 14 15 16 17 18 19 20 21 22 23 24 25 26 27 28 29 30 31 32 33 34 35 36 37 38 39 40 41 42 43 44 45 46 47 48 49 50
000
NZUS59 KLOT 261106
HRRLOT

CHICAGO AREA WEATHER ROUNDUP
NATIONAL WEATHER SERVICE CHICAGO/ROMEOVILLE IL
500 AM CST FRI DEC 26 2014

NOTE: "FAIR" INDICATES FEW OR NO CLOUDS BELOW 12,000 FEET WITH NO
SIGNIFICANT WEATHER AND/OR OBSTRUCTIONS TO VISIBILITY.

* THESE STATIONS ARE NOT UNDER NWS QUALITY CONTROL. THEY ALSO MAY NOT
  REPORT WEATHER SUCH AS PRECIPITATION OR FOG.

ILZ005-006-012>014-019>023-261200-
NORTHEAST ILLINOIS

CITY           SKY/WX    TMP DP  RH WIND       PRES   REMARKS
OHARE          PTCLDY    36  31  82 S13       29.98R
MIDWAY         PTCLDY    38  32  79 S13       30.00S
AURORA         CLEAR     34  30  85 S8        29.99R WCI  27
LANSING*       CLEAR     35  32  88 S10       30.02F WCI  27
JOLIET*        CLEAR     37  32  84 S9G16     30.01S
WAUKEGAN       MOCLDY    38  33  82 SW14      29.96R
DUPAGE AIRPORT CLEAR     34  30  85 S10       29.98R WCI  26
WHEELING       PTCLDY    37  32  82 S12G22    30.00R
KANKAKEE*      CLEAR     37  33  87 S17G23    30.02F
MORRIS*        CLEAR     36  34  92 S10       29.99F
LEWIS AIRPORT* CLEAR     36  33  87 SW12      30.00F
NORTHERLY IS     N/A     38  32  79 S13         N/A
$$

WIZ051-052-058>065-066-070>072-261200-
SOUTHEAST WISCONSIN

CITY           SKY/WX    TMP DP  RH WIND       PRES   REMARKS
MILWAUKEE      CLOUDY    39  33  79 SW10      29.95R
KENOSHA*       MOCLDY    39  34  82 SW12      29.96R
RACINE*        MOCLDY    39  33  79 SW9       29.97R
BURLINGTON     MOCLDY    37  33  87 S12       29.95R
WEST BEND      MOCLDY    36  32  87 CALM      29.92S
$$

INZ001>003-010>013-019-020-261200-
NORTHWEST INDIANA

CITY           SKY/WX    TMP DP  RH WIND       PRES   REMARKS
GARY*          CLEAR     39  30  70 S8        30.03R
MICHIGAN CITY* NOT AVBL
RENSSELAER*    NOT AVBL
VALPARAISO     CLEAR     33  30  88 S7        30.05R WCI  27
$$

LMZ740>746-261200-
SOUTHERN LAKE MICHIGAN

STATION/POSITION TIME  SKY/WX   TEMP WIND        PRES    VSBY
                                AIR  DIR/SP/G
                 (UTC)          (F)  (DEG/KT/KT) (MB)    (MI)
HARRISON CRIB    1100            38  200/ 25/ 30   N/A
BURNHAM HARBOR   1100            38  200/  8/ 12   N/A
CALUMET HARBOR   1100            37  180/  9/ 13 1015.1S
BURNS HARBOR     NOT AVBL
MICHIGAN CITY    1100            37  160/ 19/ 25   N/A
$$

ABBREVIATIONS USED IN REMARKS
   TC - TEMPERATURE IN CELSIUS
  WCI - WIND CHILL INDEX
   HX - HEAT INDEX
  VSB - VISIBILITY
$$


USA.gov is the U.S. government's official web portal to all federal, state and local government web resources and services.